Dewpoint
71 69 67 65 67 66 65 63 58 59 59 54 51 53 55 58 59 60 61 61 61 61 59 56 57 57 59 57 57 59 60 57 60 56 57 66 69 68 71 70 71 72 72 73 73 74 74 74 74 74 76 76 76 76 76 76 76 76 76 77 77 77 77 76 76 75 75 75 75 75 75 75 75 75 74 74 74 74 75 75 74 74 74 74 74 73 74 74 74 74 74 74 74 75 75 74 75
70 68 66 66 65 64 59 60 58 54 56 52 52 53 59 61 60 58 60 61 60 60 58 57 57 59 59 57 57 57 59 61 61 62 64 66 67 68 69 69 70 70 71 72 73 72 73 74 74 75 75 76 76 76 76 76 76 77 77 77 77 77 76 76 75 75 75 75 75 75 75 75 75 75 75 75 74 74 74 75 74 75 74 73 74 74 74 74 74 74 74 74 75 75 75 74 75
69 67 65 66 65 66 61 61 56 54 52 49 51 56 58 58 58 59 61 62 60 59 57 58 60 59 57 58 58 58 57 62 62 63 64 66 66 68 69 69 69 71 70 71 70 70 73 75 75 75 76 75 76 76 77 76 77 76 76 76 76 76 76 75 75 75 75 75 75 75 75 75 75 75 75 74 74 74 74 74 75 75 75 74 74 74 74 74 74 74 74 74 74 73 74 74 75
68 65 64 64 60 65 60 58 58 54 50 51 51 57 58 57 58 61 61 60 59 57 58 59 61 62 59 56 57 58 59 60 61 63 65 64 65 68 69 69 71 69 69 70 68 68 71 76 77 77 76 76 76 76 76 76 76 76 76 76 76 76 76 75 76 76 75 75 75 75 74 75 74 75 74 74 75 75 74 74 75 75 75 75 73 74 74 74 75 74 74 74 74 74 74 74 74
67 65 65 64 63 62 61 58 56 54 54 51 55 56 57 57 59 61 62 60 59 58 58 59 58 62 62 60 61 57 60 60 62 62 62 64 66 68 69 70 70 69 69 69 68 69 72 76 77 76 76 76 76 76 76 76 76 76 76 76 75 75 75 75 76 76 75 75 75 75 75 75 75 75 75 75 75 74 74 74 75 75 75 75 74 74 74 74 74 74 74 74 74 74 74 74 74
67 63 66 70 65 69 63 59 55 52 52 54 52 57 59 59 60 62 61 62 59 58 58 59 59 59 58 60 61 59 61 59 62 63 64 65 66 68 70 70 68 68 68 69 69 71 72 77 76 76 76 76 76 76 76 76 76 76 76 76 75 76 75 75 75 75 75 75 75 75 75 76 76 75 75 75 75 74 74 73 74 74 75 75 75 74 73 73 75 75 75 75 74 74 74 74 74
65 63 63 66 67 67 58 54 52 51 54 55 56 57 60 61 64 62 62 60 59 58 58 58 59 59 58 60 61 62 64 62 63 63 64 66 67 68 69 68 68 68 69 70 69 71 72 76 76 76 76 76 76 76 76 76 76 76 76 76 76 76 75 75 76 75 76 76 75 75 75 75 76 75 75 75 74 74 73 74 74 74 75 75 74 73 73 73 75 74 75 74 74 74 73 73 74
66 63 64 63 61 62 57 52 52 52 55 56 58 60 62 61 62 64 61 61 59 59 57 59 59 62 61 61 61 65 63 63 64 65 66 66 68 69 68 67 68 68 69 70 71 72 77 77 76 76 76 76 76 76 76 76 76 76 76 76 76 76 75 75 76 76 76 75 75 75 76 76 75 75 75 75 74 74 74 74 74 75 75 75 75 74 73 73 75 75 74 74 74 74 74 74 74
66 69 69 64 59 58 54 53 52 53 55 56 58 64 64 64 63 63 61 59 60 60 58 57 59 59 61 61 62 64 63 64 65 67 66 66 67 68 68 67 67 68 68 68 70 71 73 76 76 76 76 76 76 76 76 76 75 75 75 75 75 75 76 75 76 76 75 75 76 75 75 75 75 75 75 75 74 74 74 75 75 75 75 75 74 74 73 73 74 75 74 74 73 73 74 73 73
67 67 62 61 57 54 50 51 52 53 57 58 60 62 64 64 64 62 59 59 59 59 59 57 58 62 62 62 62 64 64 65 66 66 66 66 67 68 68 67 68 67 66 68 68 69 72 76 76 76 76 76 76 76 76 76 75 76 76 75 75 75 75 75 75 75 75 75 76 76 75 75 75 75 75 74 75 74 75 75 75 75 74 74 75 74 73 74 75 75 74 74 74 74 74 74 74
65 66 66 61 56 52 50 48 51 52 55 59 61 64 65 63 62 60 59 59 59 59 59 59 58 60 61 62 64 66 66 65 65 65 66 66 68 68 67 68 67 66 67 67 67 70 72 74 76 76 76 76 76 76 75 75 75 75 76 76 75 75 76 76 76 76 76 76 76 76 75 75 75 75 75 75 75 75 75 75 75 74 74 74 74 74 73 73 75 75 75 75 74 75 74 74 73
63 64 63 57 55 52 50 51 50 52 55 58 60 64 62 62 61 61 60 58 59 59 59 60 59 60 61 61 62 65 66 65 65 66 66 67 67 66 67 67 67 66 66 66 67 68 71 74 75 76 76 76 76 76 75 75 75 75 75 75 76 75 76 76 76 76 75 75 76 75 75 75 75 75 75 75 76 75 75 75 75 74 74 74 74 74 73 73 74 75 75 74 74 75 74 74 74
65 63 60 56 53 53 51 52 50 50 54 56 59 62 61 61 62 62 61 58 59 59 59 61 60 61 60 61 64 65 64 65 66 66 66 66 66 67 67 67 68 66 66 68 66 67 70 71 72 74 75 76 76 75 75 75 75 76 75 75 75 76 76 75 75 76 75 75 75 76 75 75 75 75 76 75 76 76 76 74 75 75 74 75 75 74 74 74 74 74 74 74 74 74 74 74 73
64 63 60 56 55 52 52 50 49 50 52 56 59 62 61 61 61 62 60 58 59 60 59 62 61 61 62 61 64 63 64 65 66 67 66 66 66 67 67 67 68 67 67 67 68 68 68 69 70 72 75 76 75 75 75 75 75 75 75 75 75 75 75 76 75 75 75 75 76 76 76 75 75 75 76 76 75 75 75 74 74 74 75 74 75 74 74 74 74 74 74 74 74 74 74 74 74
62 61 59 57 54 52 51 52 49 48 51 57 60 60 59 61 62 60 60 60 59 61 61 61 61 60 59 59 61 62 63 65 67 67 67 67 67 67 68 68 68 68 66 65 66 66 67 68 68 73 74 75 74 75 75 75 75 75 75 75 75 75 76 76 75 75 75 75 75 75 75 75 75 75 75 74 74 75 75 75 74 74 75 74 74 75 74 74 73 73 73 73 74 74 75 74 74
64 60 57 56 53 52 49 50 48 49 53 60 59 59 60 63 63 59 59 60 60 61 60 59 61 59 60 59 60 62 63 65 67 67 67 68 68 68 67 68 67 67 67 67 66 66 67 68 70 72 74 74 74 73 74 75 75 75 75 75 75 75 75 75 75 75 74 75 75 74 75 76 75 74 73 74 75 75 75 75 75 75 75 74 74 74 74 74 74 74 73 74 74 74 74 74 75
63 62 57 53 51 49 49 49 49 56 54 59 62 62 62 61 64 67 66 64 60 59 59 60 59 60 60 60 61 62 64 65 67 66 67 67 68 66 67 67 68 68 67 67 67 66 66 68 71 72 73 73 71 73 73 75 75 75 75 76 75 74 74 74 74 75 75 75 75 75 75 75 76 75 75 74 74 75 75 75 75 75 75 75 75 74 74 73 74 74 74 74 74 74 74 75 74
60 56 52 52 52 51 50 51 50 52 54 57 60 60 63 61 61 62 64 63 61 59 59 59 60 60 60 62 62 63 64 65 66 65 65 66 66 65 65 66 66 67 67 67 67 66 67 69 71 71 71 72 73 73 74 74 75 75 76 76 76 75 75 75 76 76 75 76 75 75 76 76 75 76 76 74 75 75 75 74 74 74 74 75 75 75 74 74 74 74 74 74 74 73 74 74 75
55 53 51 50 51 54 52 52 51 52 51 56 57 59 59 59 59 60 60 59 58 58 59 59 60 61 61 61 62 63 64 65 65 65 64 65 65 65 65 66 66 66 66 66 67 66 68 69 70 69 70 73 73 73 73 74 75 76 77 76 75 75 75 76 76 76 76 76 76 76 75 75 75 76 77 76 76 74 75 75 75 75 74 75 75 75 75 75 74 74 75 75 74 74 75 73 72
55 53 49 47 54 54 55 53 53 53 54 55 57 58 58 58 59 60 59 58 58 57 58 59 60 60 59 61 63 64 64 64 65 65 63 64 64 64 64 64 65 66 66 65 66 65 67 68 70 69 71 72 73 73 74 74 75 75 75 76 75 75 76 77 77 77 77 76 75 75 73 75 75 76 76 76 75 74 76 76 75 75 75 75 74 74 75 75 75 75 75 75 75 74 72 70 70
53 51 49 53 54 53 53 53 53 54 54 56 56 58 57 58 58 58 58 57 57 57 58 59 59 59 60 62 63 64 63 63 63 64 63 64 65 64 64 64 64 66 66 65 67 66 67 68 69 70 72 72 72 72 73 72 74 73 73 74 75 74 75 75 75 76 76 76 75 73 71 73 72 73 74 75 74 76 75 75 75 75 76 76 74 76 74 75 76 74 74 74 72 72 70 71 70
53 50 49 51 52 52 55 54 54 53 54 60 58 56 56 59 58 58 57 56 55 56 59 59 59 61 61 62 63 63 63 63 63 63 62 63 64 65 64 63 64 66 66 66 66 67 67 67 68 69 71 72 72 72 73 73 73 72 74 74 74 74 74 73 74 74 74 74 72 69 71 73 73 74 74 74 74 75 74 73 73 75 76 75 76 74 72 74 73 72 73 72 70 70 70 71 70
47 51 51 52 53 55 55 54 55 54 51 55 55 57 57 57 57 58 58 56 57 57 59 59 61 61 61 62 63 63 62 62 63 62 63 62 64 64 65 64 65 65 66 66 66 67 67 67 69 69 69 72 72 73 73 72 72 72 74 73 73 72 73 73 72 72 73 74 72 71 67 68 70 71 72 72 72 73 73 73 74 74 75 74 73 72 74 75 73 72 72 73 71 69 68 69 71
47 42 49 50 51 53 54 54 55 53 50 50 52 57 56 56 57 57 57 58 58 58 59 61 61 62 62 62 62 62 62 62 62 63 62 61 62 63 64 64 66 66 67 67 66 66 68 66 69 69 70 71 72 72 73 72 72 72 72 73 73 72 72 72 71 71 74 73 73 71 68 69 67 68 71 71 70 71 72 73 72 70 69 71 72 73 73 73 73 75 75 75 73 71 67 70 67
44 41 43 49 50 51 53 54 53 51 50 49 50 53 53 55 55 56 57 57 59 59 60 61 62 62 61 62 61 61 61 61 61 62 61 62 62 63 64 64 65 66 66 66 65 66 67 67 69 68 70 72 71 71 71 71 71 72 72 71 73 73 73 71 71 74 72 71 72 74 72 67 67 69 70 71 70 70 70 70 68 68 70 72 72 73 74 75 74 72 73 73 73 73 70 69 68
39 39 40 44 47 49 50 50 50 49 49 49 49 51 52 54 55 55 56 57 59 61 61 61 62 61 61 61 61 61 61 61 61 60 60 62 62 62 64 64 63 65 65 66 66 66 66 67 68 68 69 71 71 69 72 71 71 71 72 72 73 74 72 72 73 69 70 71 71 73 72 69 70 69 71 71 70 70 69 70 69 68 70 71 74 73 72 73 72 72 73 73 72 72 71 71 67
41 38 37 40 44 46 48 48 49 49 49 48 48 50 50 53 54 52 55 57 60 61 61 62 61 61 61 61 61 61 60 60 61 61 61 61 63 63 63 63 63 64 66 65 66 67 67 66 67 69 70 72 71 69 70 71 72 71 71 71 71 72 72 73 72 70 69 70 71 75 75 75 73 72 74 74 73 72 72 71 71 71 72 73 74 73 74 75 73 72 73 71 72 73 72 70 70
28 41 40 38 37 38 40 43 45 47 47 48 47 47 49 52 54 52 54 58 60 60 61 61 61 62 61 61 61 62 61 61 61 61 60 60 61 63 62 62 63 63 65 65 66 68 66 65 66 68 69 71 71 68 71 70 71 71 72 71 70 72 74 71 69 70 71 71 73 74 75 74 75 75 76 75 74 74 73 73 74 75 74 74 75 73 74 75 75 75 75 75 75 74 73 71 71
31 34 30 30 35 36 37 38 43 46 45 46 47 47 47 51 53 52 56 58 60 60 61 61 61 62 62 62 61 62 61 60 61 61 61 61 62 61 62 62 62 63 65 65 67 68 66 65 66 68 68 71 71 68 69 69 71 71 72 71 71 72 71 70 69 69 72 74 75 74 74 75 75 75 76 76 75 73 73 75 73 75 75 76 75 75 76 75 75 74 75 74 74 73 72 71 71
27 26 27 27 28 32 36 39 42 44 45 46 47 44 47 48 51 53 56 58 58 59 61 61 61 62 62 62 61 61 61 61 61 61 61 62 62 61 62 62 63 63 65 66 67 67 66 65 66 67 68 69 71 68 71 69 71 71 71 69 72 71 68 68 69 70 71 72 73 75 74 74 74 75 76 76 75 73 74 74 74 73 75 76 76 76 73 72 71 72 72 73 72 73 71 71 69
23 21 23 21 20 23 31 39 43 42 44 45 47 44 44 46 49 52 56 58 57 58 60 61 61 61 62 61 62 61 60 61 60 61 61 62 62 63 63 64 64 65 66 66 68 68 67 65 66 66 69 70 71 70 71 71 72 70 69 69 71 70 70 68 67 70 70 70 71 72 74 74 75 76 76 77 76 75 72 72 74 72 75 76 75 75 74 72 73 73 71 71 72 70 70 71 69
22 20 19 19 20 22 32 39 41 42 43 45 46 45 49 48 48 51 56 57 57 58 59 60 61 61 62 62 62 61 60 60 61 61 61 62 62 63 64 64 65 65 67 68 69 68 67 67 68 66 69 70 71 72 72 72 72 72 70 71 71 71 67 68 66 66 68 69 69 72 74 75 76 78 78 78 76 74 72 72 72 76 76 75 74 75 74 73 75 72 72 71 70 69 71 69 69
23 18 14 15 19 20 27 37 41 43 43 44 46 47 44 45 47 51 56 56 56 56 58 60 61 61 62 62 62 61 61 61 61 61 62 63 63 63 64 65 66 67 68 69 69 69 69 68 69 66 67 69 71 72 73 73 73 73 73 71 69 70 68 65 66 66 66 67 67 68 73 75 77 77 78 78 76 75 73 73 72 75 76 74 75 74 73 72 73 70 74 73 72 72 69 66 66
16 19 17 15 15 18 21 29 37 42 43 43 45 44 47 48 46 50 55 55 56 55 56 59 61 61 62 63 62 62 62 61 62 62 63 63 64 65 65 67 67 68 68 69 69 69 69 69 68 66 68 69 71 72 73 74 74 74 73 72 72 69 66 64 65 66 67 64 65 67 74 75 76 77 78 78 77 76 75 73 73 76 76 76 75 74 75 74 73 71 73 74 73 73 68 66 65
12 17 19 15 15 18 20 26 34 38 42 42 44 44 44 45 47 49 53 54 55 55 55 57 59 61 62 62 62 62 62 62 62 63 63 64 64 65 65 67 67 68 68 68 70 71 70 70 69 68 69 69 71 73 75 74 73 75 71 71 71 71 69 65 64 65 66 68 67 71 76 75 75 78 77 78 77 75 74 75 75 76 75 76 75 75 74 75 73 72 72 74 75 72 69 68 66
9 14 16 14 16 21 22 23 32 38 38 40 42 43 44 44 45 48 50 52 54 54 55 57 59 60 62 62 62 62 63 62 63 64 64 64 65 65 66 67 67 67 68 69 71 71 71 71 70 70 70 68 72 73 73 71 71 71 68 68 68 68 67 66 68 65 67 68 70 72 75 75 75 76 77 77 77 76 75 74 75 76 75 75 75 73 72 72 74 75 74 74 74 72 69 67 66
20 15 18 16 14 19 21 21 29 37 37 39 41 42 43 44 44 46 49 51 53 53 54 56 59 60 61 62 62 62 63 62 63 63 64 64 64 66 66 67 67 67 69 70 71 71 71 70 71 70 70 70 71 72 71 69 69 69 66 65 63 64 67 67 66 66 66 66 71 72 74 73 75 75 75 76 75 75 75 75 76 76 75 75 76 75 74 75 75 75 75 75 73 72 70 67 65
22 19 18 18 21 21 21 19 24 34 35 38 41 41 42 44 45 45 48 49 50 51 53 56 58 59 61 62 62 63 63 63 63 64 64 65 65 65 65 66 67 67 68 69 70 71 72 70 71 71 70 70 70 70 70 68 70 67 65 64 61 61 65 65 65 66 64 65 72 74 74 73 75 75 75 76 76 75 75 74 75 75 75 76 76 76 77 75 77 75 74 73 73 71 70 66 64
20 18 16 14 14 18 20 22 27 29 30 34 38 39 40 42 43 44 44 47 50 50 52 55 59 60 61 62 62 63 63 64 63 63 64 64 64 65 66 66 66 66 67 68 70 71 71 71 72 72 71 70 69 70 70 69 69 69 65 64 62 60 64 65 62 63 65 64 69 73 74 74 75 75 76 76 75 75 75 75 75 75 76 76 76 76 76 77 77 75 75 72 70 72 71 70 69
21 14 15 15 15 14 16 21 30 31 29 30 36 36 37 40 43 43 43 45 50 51 51 54 57 60 60 61 62 63 63 64 63 64 63 63 64 65 66 66 66 66 67 68 69 70 71 72 72 73 72 71 71 70 71 70 70 71 70 68 66 64 65 66 66 65 66 66 67 71 73 75 75 74 74 75 75 75 75 75 75 75 76 76 76 76 76 76 76 76 73 73 73 69 68 69 67
16 14 12 13 18 20 21 21 24 26 28 29 31 34 36 38 38 40 42 44 48 50 50 53 56 58 60 61 62 63 63 64 64 64 64 64 65 65 66 67 66 65 66 67 68 68 68 70 72 73 73 72 72 72 72 71 71 72 71 71 70 68 69 67 67 65 67 67 66 70 72 74 75 73 74 75 74 75 76 76 74 74 74 76 76 76 76 74 74 74 76 75 74 70 68 69 69
14 15 14 13 16 19 25 24 28 25 24 26 27 31 34 37 37 37 39 41 45 48 51 52 56 58 60 60 61 63 63 64 65 64 64 64 65 66 67 67 66 66 66 67 67 67 68 70 72 74 73 73 72 73 73 72 72 71 70 69 68 67 66 66 64 62 61 62 61 65 71 72 72 73 73 74 74 74 76 76 75 74 73 74 74 74 74 74 75 74 75 74 74 73 73 71 67
13 14 16 14 14 22 28 27 25 26 27 24 25 26 28 33 34 37 39 41 44 46 49 51 54 58 59 60 61 62 62 63 65 64 65 64 65 65 66 67 67 66 66 67 67 68 69 70 72 73 73 73 73 73 73 73 72 71 70 68 65 65 64 64 65 61 59 60 62 64 69 72 73 72 72 74 74 75 76 76 75 75 73 73 74 74 73 73 71 73 75 75 74 74 74 72 70
11 12 14 15 12 15 26 28 25 23 23 23 26 25 27 28 31 36 38 40 42 45 48 50 51 58 58 60 59 62 62 63 64 64 65 65 66 66 66 67 67 65 66 66 66 67 69 71 73 74 74 73 73 74 74 73 73 72 71 68 65 65 61 63 66 66 63 64 64 64 67 71 74 73 72 74 75 75 76 76 76 75 74 74 73 72 72 71 73 74 75 77 77 75 75 72 70
13 12 13 16 14 11 15 22 23 24 23 25 27 30 31 30 32 36 38 38 39 43 47 49 52 56 59 59 58 61 62 63 63 64 64 65 65 66 66 67 67 66 65 66 67 68 69 71 73 74 74 74 73 74 74 74 73 72 72 69 67 66 64 63 66 67 65 67 68 67 71 71 73 74 73 73 74 74 76 76 76 76 75 74 74 72 71 70 72 75 76 76 76 76 74 73 73
16 14 25 23 20 14 9 12 20 25 28 27 27 27 29 29 30 31 38 37 37 41 46 45 51 53 58 58 59 59 62 63 63 64 65 65 66 66 66 66 67 66 66 68 68 68 69 71 73 74 74 74 74 74 74 74 73 73 72 71 70 68 67 66 66 68 68 71 70 71 71 73 72 73 73 74 75 74 75 76 75 75 75 73 73 72 72 72 73 74 76 76 76 76 75 73 72
17 16 17 22 21 18 14 11 17 24 25 27 24 24 25 24 28 29 31 34 37 40 44 44 48 51 54 57 58 58 60 62 63 64 64 65 66 66 66 66 68 67 67 67 67 68 69 70 72 74 74 74 74 74 74 74 73 73 73 72 72 71 70 69 68 71 71 72 71 70 71 72 72 72 72 74 74 74 75 75 74 74 75 74 74 73 73 72 71 72 72 75 76 76 75 74 73
19 16 15 21 23 23 23 20 21 19 20 27 24 23 24 22 26 29 32 33 35 36 38 44 44 49 52 56 55 56 59 62 63 63 63 65 66 67 66 67 68 68 67 67 67 68 69 70 72 73 74 74 74 74 74 73 73 73 73 73 73 72 72 70 70 71 72 73 71 70 71 72 72 71 73 72 73 72 74 74 74 74 74 74 74 74 73 73 72 72 71 74 75 76 76 75 74
20 18 19 20 20 28 26 24 21 20 19 22 21 23 24 25 29 29 27 30 34 37 34 37 43 45 52 53 56 56 57 60 62 64 64 64 65 66 66 67 69 69 68 68 67 67 69 70 72 73 74 74 74 74 74 74 73 73 73 73 73 73 73 72 72 71 72 72 71 70 72 72 73 72 72 71 72 73 73 75 75 74 74 75 76 75 74 74 74 72 73 72 73 75 74 75 73
20 19 20 21 18 25 26 25 26 23 22 20 21 23 21 23 24 29 28 30 32 35 37 35 41 44 51 53 56 55 57 59 61 62 63 65 66 66 67 67 68 68 68 67 68 69 69 70 72 73 74 74 74 74 74 73 73 73 74 73 73 73 73 73 72 71 71 72 71 70 70 69 71 71 70 73 71 72 72 75 75 75 76 76 76 76 75 75 75 73 73 73 72 74 74 75 75
20 19 18 21 22 23 26 25 22 22 24 24 23 20 26 22 23 23 27 28 33 35 35 38 39 41 47 49 51 53 55 58 61 62 62 63 65 67 66 67 67 68 68 67 67 69 70 70 72 73 74 74 74 74 74 73 73 73 74 73 73 73 73 72 72 71 72 72 70 70 71 68 68 70 70 73 74 73 74 75 75 75 75 76 77 77 75 75 75 75 74 74 74 73 74 74 73
21 19 19 19 19 23 23 25 23 23 23 22 26 23 24 25 31 31 28 23 26 30 34 36 38 38 42 45 47 49 52 55 58 60 62 64 66 67 66 66 67 68 69 68 68 69 69 71 72 73 73 74 74 74 73 73 73 73 74 74 74 74 74 73 73 73 72 72 73 72 72 72 70 69 72 73 74 74 74 74 74 75 75 75 76 77 76 74 75 74 74 74 75 72 74 74 74
22 20 19 19 20 20 24 28 25 26 27 26 28 27 26 26 26 27 27 25 26 28 28 28 30 34 42 42 44 48 50 53 57 59 61 64 64 66 66 67 66 67 67 68 69 70 71 71 71 73 74 74 74 74 73 74 74 74 74 74 74 74 73 73 71 72 70 72 74 73 72 72 72 72 72 74 75 75 74 74 74 72 74 75 75 76 75 75 75 74 73 75 74 72 74 75 73
21 21 21 21 21 23 25 22 26 24 23 26 23 23 25 25 24 24 23 23 21 23 25 25 30 29 33 38 42 47 49 51 55 60 62 63 63 65 65 65 65 66 67 68 70 70 71 71 71 72 73 73 73 73 73 73 74 74 74 74 74 74 73 72 72 72 72 72 73 74 73 72 72 71 71 71 74 74 75 75 74 73 73 74 74 74 75 75 76 74 73 74 73 75 74 75 75
25 22 24 21 21 22 27 27 24 22 22 22 21 20 19 22 26 24 22 20 19 22 25 24 23 26 28 32 39 46 48 49 54 57 60 61 62 63 65 64 64 66 68 68 68 68 69 70 70 70 71 71 72 71 72 73 73 72 73 74 74 74 73 73 72 73 73 72 72 72 72 72 73 73 74 74 74 73 74 75 75 73 73 74 74 73 75 75 76 74 73 72 74 75 75 74 75
25 27 26 24 24 24 26 27 30 30 23 25 23 19 21 24 23 21 24 25 24 21 23 20 20 25 26 30 31 39 46 48 51 55 58 60 61 61 62 63 63 64 66 66 67 67 67 68 70 70 70 71 72 72 72 72 72 72 72 73 74 75 74 73 73 73 72 72 72 72 72 71 73 73 73 74 73 73 74 73 73 72 70 71 73 72 73 74 75 74 72 71 71 75 74 74 73
23 24 25 26 24 25 25 25 27 27 27 25 26 22 24 26 23 20 24 27 29 26 26 27 25 25 23 28 30 38 44 45 45 50 55 58 61 60 61 62 62 63 65 65 65 66 66 67 68 68 70 69 70 70 70 72 72 72 73 73 72 74 73 73 72 72 73 73 73 73 72 72 73 73 73 73 74 74 74 74 72 72 71 72 74 73 73 74 75 75 74 74 73 74 75 74 74
22 22 23 24 25 24 24 26 26 24 25 26 25 25 31 24 23 22 22 25 23 26 27 27 28 26 30 28 33 41 42 46 46 44 50 54 60 61 61 62 62 62 63 64 64 65 65 66 66 67 67 68 68 68 70 72 72 72 72 72 72 72 73 73 72 72 73 72 73 73 73 74 72 74 74 73 74 74 74 74 73 73 74 72 74 76 72 72 74 74 74 72 73 74 75 75 74